Flag for Cyprus Weather past 2 weeks in Famagusta, Cyprus

Now
55 °F

Clear.


Feels Like: 55 °F
Forecast: 54 / 63 °F
Wind: 5 mph from Northwest

Location: Larnaca Airport

Current Time: Dec 18, 2014 at 4:28:23 AM

Latest Report: Dec 18, 2014 at 4:00 AM


Visibility: 5 mi

Pressure: 30.09 "Hg

Humidity: 82%

Dew point: 50 °F

Location of FamagustaLocation

Historic Weather in Famagusta — Graph

°F

Famagusta temperature yesterday

Maximum temperature yesterday: 66 °F (at 12:30 PM)
Minimum temperature yesterday: 50 °F (at 3:30 AM)
Average temperature yesterday: 58 °F

Past Weeks' High & Low Weather Summary

 TemperatureHumidityPressure
High73 °F (Dec 12, 2:00 PM)100% (Dec 10, 2:30 AM)30.27 "Hg (Dec 10, 2:30 AM)
Low50 °F (Dec 17, 3:30 AM)40% (Dec 15, 1:30 PM)29.71 "Hg (Dec 9, 11:30 AM)
Average62 °F78%30.07 "Hg
* Reported Dec 3 3:00 AM — Dec 18 3:30 AM, Famagusta, Weather by CustomWeather, © 2014

Note: Actual official high and low records may vary slightly from our data, if they occured in-between our weather recording intervals... More about our weather records

Advertising

Famagusta weather history for previous 24 hours

 ConditionsComfort  
Time TempWeatherWind HumidityBarometerVisibility
3:30 AM
Dec 18
57 °FClear.7 mph77%30.09 "Hg5 mi
3:00 AM55 °FClear.7 mph82%30.12 "Hg5 mi
2:30 AM55 °FClear.7 mph82%30.12 "Hg5 mi
2:00 AM57 °FClear.6 mph82%30.12 "Hg5 mi
1:30 AM55 °FClear.7 mph88%30.15 "Hg5 mi
1:00 AM57 °FClear.7 mph82%30.15 "Hg5 mi
12:30 AM57 °FClear.6 mph82%30.15 "Hg5 mi
12:00 AM57 °FClear.6 mph82%30.15 "Hg5 mi
11:30 PM
Dec 17
57 °FClear.7 mph82%30.15 "Hg5 mi
11:00 PM57 °FClear.6 mph82%30.15 "Hg5 mi
10:30 PM57 °FClear.6 mph88%30.18 "Hg5 mi
10:00 PM57 °FClear.6 mph88%30.18 "Hg5 mi
9:30 PM57 °FClear.7 mph88%30.18 "Hg5 mi
9:00 PM57 °FClear.7 mph88%30.18 "Hg5 mi
8:30 PM59 °FClear.7 mph82%30.18 "Hg5 mi
8:00 PM59 °FClear.6 mph82%30.18 "Hg5 mi
7:30 PM59 °FClear.6 mph82%30.18 "Hg6 mi
7:00 PM59 °FClear.5 mph77%30.18 "Hg10 mi
6:30 PM59 °FPassing clouds.7 mph82%30.18 "HgN/A
6:00 PM59 °FPassing clouds.9 mph82%30.18 "HgN/A
5:30 PM61 °FPassing clouds.8 mph77%30.18 "HgN/A
5:00 PM61 °FPassing clouds.10 mph77%30.18 "HgN/A
4:30 PM63 °FPassing clouds.8 mph68%30.18 "HgN/A
4:00 PM63 °FPassing clouds.6 mph68%30.18 "HgN/A
3:30 PM64 °FPassing clouds.7 mph64%30.21 "HgN/A
3:00 PM64 °FPassing clouds.5 mph68%30.21 "HgN/A
2:30 PM64 °FPassing clouds.6 mph68%30.21 "HgN/A
2:00 PM66 °FPassing clouds.6 mph60%30.18 "HgN/A
1:30 PM66 °FPassing clouds.8 mph60%30.18 "HgN/A
1:00 PM64 °FPassing clouds.6 mph68%30.21 "HgN/A
12:30 PM66 °FPassing clouds.7 mph64%30.24 "HgN/A
12:00 PM64 °FPassing clouds.8 mph64%30.24 "HgN/A
11:30 AM64 °FPassing clouds.9 mph68%30.24 "HgN/A
11:00 AM64 °FPassing clouds.8 mph68%30.24 "HgN/A
10:30 AM64 °FPassing clouds.8 mph73%30.27 "HgN/A
10:00 AM63 °FPassing clouds.6 mph73%30.27 "HgN/A
9:30 AM61 °FPassing clouds.5 mph77%30.27 "HgN/A
9:00 AM59 °FPassing clouds.5 mph82%30.27 "HgN/A
8:30 AM57 °FScattered clouds.5 mph82%30.27 "HgN/A
8:00 AM55 °FPassing clouds.7 mph82%30.27 "HgN/A
7:30 AM54 °FPassing clouds.5 mph88%30.27 "HgN/A
7:00 AM50 °FPassing clouds.6 mph94%30.27 "Hg5 mi
6:30 AM50 °FPassing clouds.6 mph94%30.27 "Hg4 mi
6:00 AM50 °FPassing clouds.6 mph94%30.27 "Hg4 mi
5:30 AM50 °FClear.7 mph94%30.24 "Hg4 mi
5:00 AM50 °FClear.5 mph94%30.24 "Hg4 mi
4:30 AM52 °FClear.7 mph88%30.24 "Hg4 mi
4:00 AM52 °FClear.6 mph88%30.27 "Hg4 mi
Weather by CustomWeather, © 2014

See weather overviewHow to use our weather pages